Location: ???????
(55.5931°N, 39.3286°E)
Time: 10:02:24
(UTC+00:00)

S3M - Pass Details

Date: 27 May 2025
Orbit: 949 x 1002 km, 83.0° (Epoch: 19 June)

Event Time Altitude Azimuth Distance (km) Brightness Sun altitude
Rises 23:51:11 0° 350° (N) 3,679 7.8 -6.5°
Reaches altitude 10° 23:55:08 10° 14° (NNE) 2,740 7.7 -6.2°
Maximum altitude 23:58:24 14° 46° (NE) 2,439 7.7 -5.9°
Drops below altitude 10° 00:01:40 10° 78° (ENE) 2,753 7.2 -5.6°
Sets 00:05:37 0° 102° (ESE) 3,708 7.4 -5.3°
